TimeCST,TemperatureF,Dew PointF,Humidity,Sea Level PressureIn,VisibilityMPH,Wind Direction,Wind SpeedMPH,Gust SpeedMPH,PrecipitationIn,Events,Conditions,WindDirDegrees,DateUTC
12:15 AM,50.0,33.8,54,30.05,10.0,East,3.5,-,N/A,,Overcast,80,2013-02-21 06:15:00
12:35 AM,50.0,33.8,54,30.06,10.0,Calm,Calm,-,N/A,,Mostly Cloudy,0,2013-02-21 06:35:00
12:55 AM,50.0,35.6,58,30.05,10.0,NE,3.5,-,N/A,,Overcast,50,2013-02-21 06:55:00
1:15 AM,50.0,33.8,54,30.05,10.0,ENE,4.6,-,N/A,,Overcast,60,2013-02-21 07:15:00
1:35 AM,50.0,32.0,50,30.03,10.0,Calm,Calm,-,N/A,,Overcast,0,2013-02-21 07:35:00
1:55 AM,50.0,32.0,50,30.02,10.0,ENE,4.6,-,N/A,,Overcast,60,2013-02-21 07:55:00
2:15 AM,50.0,33.8,54,30.02,10.0,Calm,Calm,-,N/A,,Overcast,0,2013-02-21 08:15:00
2:35 AM,50.0,32.0,50,30.01,10.0,ENE,5.8,-,N/A,,Overcast,70,2013-02-21 08:35:00
2:55 AM,50.0,32.0,50,30.00,10.0,ENE,5.8,-,N/A,,Overcast,70,2013-02-21 08:55:00
3:15 AM,50.0,32.0,50,30.00,10.0,ENE,3.5,-,N/A,,Overcast,60,2013-02-21 09:15:00
3:35 AM,50.0,32.0,50,30.00,10.0,ENE,3.5,-,N/A,,Overcast,70,2013-02-21 09:35:00
3:55 AM,50.0,32.0,50,29.99,10.0,East,5.8,-,N/A,,Overcast,80,2013-02-21 09:55:00
4:15 AM,50.0,32.0,50,29.98,10.0,East,5.8,-,N/A,,Overcast,90,2013-02-21 10:15:00
4:35 AM,50.0,32.0,50,29.98,10.0,ENE,5.8,-,N/A,,Overcast,70,2013-02-21 10:35:00
4:55 AM,50.0,32.0,50,29.99,10.0,ENE,5.8,-,N/A,,Overcast,70,2013-02-21 10:55:00
5:15 AM,50.0,33.8,54,29.99,10.0,ENE,5.8,-,N/A,,Overcast,70,2013-02-21 11:15:00
5:55 AM,50.0,33.8,54,29.99,10.0,East,6.9,-,N/A,,Overcast,80,2013-02-21 11:55:00
6:15 AM,50.0,35.6,58,29.99,10.0,East,6.9,-,N/A,,Overcast,80,2013-02-21 12:15:00
6:35 AM,51.8,35.6,54,30.00,10.0,ENE,4.6,-,N/A,,Overcast,70,2013-02-21 12:35:00
6:55 AM,51.8,35.6,54,30.00,10.0,East,5.8,-,N/A,,Overcast,80,2013-02-21 12:55:00
7:15 AM,51.8,37.4,58,30.01,10.0,East,4.6,-,N/A,,Overcast,80,2013-02-21 13:15:00
7:35 AM,51.8,37.4,58,30.01,10.0,ENE,3.5,-,N/A,,Overcast,60,2013-02-21 13:35:00
7:55 AM,53.6,37.4,54,30.01,10.0,East,9.2,-,N/A,,Overcast,100,2013-02-21 13:55:00
8:15 AM,53.6,39.2,58,30.01,10.0,East,6.9,-,N/A,,Overcast,100,2013-02-21 14:15:00
8:35 AM,55.4,41.0,58,30.01,10.0,ESE,6.9,-,N/A,,Overcast,110,2013-02-21 14:35:00
8:55 AM,55.4,42.8,63,30.00,10.0,East,8.1,-,N/A,,Overcast,100,2013-02-21 14:55:00
9:15 AM,57.2,44.6,63,30.00,10.0,ESE,8.1,-,N/A,,Overcast,110,2013-02-21 15:15:00
9:35 AM,57.2,46.4,67,29.98,10.0,ESE,12.7,-,N/A,,Overcast,110,2013-02-21 15:35:00
9:55 AM,60.8,46.4,59,29.98,10.0,ESE,11.5,-,N/A,,Overcast,110,2013-02-21 15:55:00
10:15 AM,60.8,48.2,63,29.97,10.0,ESE,8.1,17.3,N/A,,Overcast,120,2013-02-21 16:15:00
10:35 AM,60.8,50.0,68,29.97,10.0,ESE,10.4,17.3,N/A,,Overcast,120,2013-02-21 16:35:00
10:55 AM,62.6,51.8,68,29.96,10.0,ESE,10.4,18.4,N/A,,Overcast,120,2013-02-21 16:55:00
11:15 AM,64.4,55.4,73,29.94,10.0,SE,21.9,27.6,N/A,,Overcast,130,2013-02-21 17:15:00
11:35 AM,64.4,55.4,73,29.93,10.0,SE,20.7,28.8,N/A,,Overcast,130,2013-02-21 17:35:00
11:55 AM,64.4,57.2,77,29.92,10.0,SE,20.7,29.9,N/A,,Overcast,130,2013-02-21 17:55:00
12:15 PM,66.2,57.2,73,29.91,10.0,SE,23.0,28.8,N/A,,Overcast,130,2013-02-21 18:15:00
12:35 PM,66.2,57.2,73,29.90,10.0,SE,20.7,29.9,N/A,,Overcast,130,2013-02-21 18:35:00
12:55 PM,66.2,57.2,73,29.88,10.0,SE,19.6,29.9,N/A,,Overcast,130,2013-02-21 18:55:00
1:15 PM,66.2,59.0,78,29.86,10.0,SE,19.6,27.6,N/A,,Overcast,130,2013-02-21 19:15:00
1:35 PM,66.2,59.0,78,29.85,10.0,SE,17.3,27.6,N/A,,Overcast,130,2013-02-21 19:35:00
1:55 PM,66.2,59.0,78,29.84,10.0,SE,18.4,25.3,N/A,,Overcast,130,2013-02-21 19:55:00
2:15 PM,66.2,59.0,78,29.82,7.0,SE,20.7,29.9,N/A,,Light Drizzle,130,2013-02-21 20:15:00
2:35 PM,64.4,60.8,88,29.81,7.0,SE,17.3,26.5,N/A,Rain,Light Rain,130,2013-02-21 20:35:00
2:55 PM,64.4,60.8,88,29.80,7.0,SE,18.4,21.9,N/A,Rain,Rain,130,2013-02-21 20:55:00
3:15 PM,64.4,60.8,88,29.80,5.0,SE,16.1,20.7,0.01,Rain,Light Rain,130,2013-02-21 21:15:00
3:35 PM,64.4,60.8,88,29.81,2.5,SE,12.7,-,0.03,Rain,Heavy Rain,140,2013-02-21 21:35:00
3:55 PM,66.2,62.6,88,29.80,5.0,SSE,15.0,-,0.06,,Light Drizzle,150,2013-02-21 21:55:00
4:15 PM,66.2,62.6,88,29.81,7.0,SSE,11.5,18.4,0.01,,Overcast,150,2013-02-21 22:15:00
4:35 PM,66.2,62.6,88,29.80,7.0,SE,10.4,-,0.03,,Overcast,140,2013-02-21 22:35:00
4:55 PM,68.0,64.4,88,29.80,7.0,SSE,20.7,26.5,0.04,,Overcast,150,2013-02-21 22:55:00
5:15 PM,69.8,64.4,83,29.82,5.0,South,13.8,24.2,0.02,Rain,Light Rain,170,2013-02-21 23:15:00
5:35 PM,69.8,64.4,83,29.82,5.0,South,13.8,23.0,0.03,Rain,Rain,170,2013-02-21 23:35:00
5:55 PM,68.0,64.4,88,29.82,7.0,South,15.0,21.9,0.04,,Overcast,170,2013-02-21 23:55:00
6:15 PM,68.0,64.4,88,29.84,7.0,South,12.7,-,0.01,Rain,Rain,170,2013-02-22 00:15:00
6:35 PM,68.0,64.4,88,29.84,7.0,SSE,10.4,-,0.02,,Overcast,160,2013-02-22 00:35:00
6:55 PM,68.0,64.4,88,29.84,7.0,SSE,10.4,-,0.04,,Overcast,160,2013-02-22 00:55:00
7:15 PM,68.0,64.4,88,29.84,7.0,SSE,9.2,-,N/A,,Overcast,160,2013-02-22 01:15:00
7:35 PM,68.0,64.4,88,29.85,7.0,South,10.4,-,0.01,,Overcast,170,2013-02-22 01:35:00
7:55 PM,69.8,66.2,88,29.85,7.0,South,11.5,-,0.02,,Overcast,180,2013-02-22 01:55:00
8:15 PM,69.8,66.2,88,29.86,10.0,South,12.7,17.3,0.01,,Overcast,190,2013-02-22 02:15:00
8:35 PM,69.8,66.2,88,29.86,10.0,South,16.1,19.6,0.02,,Overcast,180,2013-02-22 02:35:00
8:55 PM,69.8,66.2,88,29.87,7.0,South,12.7,18.4,0.02,,Overcast,190,2013-02-22 02:55:00
9:15 PM,69.8,66.2,88,29.88,10.0,South,11.5,18.4,0.01,,Overcast,180,2013-02-22 03:15:00
9:35 PM,69.8,66.2,88,29.87,7.0,South,10.4,18.4,0.01,,Overcast,170,2013-02-22 03:35:00
9:55 PM,69.8,66.2,88,29.87,7.0,South,9.2,-,0.01,,Mostly Cloudy,180,2013-02-22 03:55:00
10:15 PM,69.8,66.2,88,29.87,7.0,South,9.2,-,N/A,,Overcast,190,2013-02-22 04:15:00
10:35 PM,69.8,66.2,88,29.88,7.0,South,9.2,-,N/A,,Overcast,190,2013-02-22 04:35:00
10:55 PM,69.8,66.2,88,29.88,7.0,South,8.1,-,N/A,,Overcast,190,2013-02-22 04:55:00
11:15 PM,69.8,66.2,88,29.88,7.0,South,6.9,-,N/A,,Overcast,190,2013-02-22 05:15:00
11:35 PM,69.8,66.2,88,29.89,7.0,South,6.9,-,N/A,,Overcast,190,2013-02-22 05:35:00
11:55 PM,69.8,66.2,88,29.89,7.0,South,6.9,-,N/A,,Overcast,190,2013-02-22 05:55:00